Lid_Strength_Index
5 4 4 4 4 4 4 2 2 2 2 2 2 3 4 4 4 3 2 2 2 0 1 2 2 2 2 3 3 3 2 3 2 3 3 3 2 2 2 2 2 1 1
6 5 5 4 3 3 3 3 2 2 2 2 2 3 4 4 4 3 2 1 1 1 2 2 3 3 3 3 3 3 3 3 2 3 4 6 4 2 2 2 2 2 1
6 6 5 5 3 3 3 3 2 2 2 3 3 4 5 5 5 5 4 2 1 1 2 2 2 2 2 3 3 3 3 4 3 3 4 6 7 5 4 3 2 2 3
6 5 5 5 4 4 3 2 2 3 3 3 4 4 5 6 5 5 3 2 2 2 1 1 2 2 2 3 3 2 3 4 4 4 2 3 4 6 7 4 3 3 2
7 7 6 4 4 3 4 3 3 3 4 4 4 5 6 5 5 3 3 2 2 2 1 2 2 2 3 3 3 3 3 3 4 4 4 4 4 3 5 7 5 4 3
7 6 5 4 4 3 3 4 4 5 5 5 5 6 5 4 3 3 3 4 3 2 2 2 2 2 2 2 2 2 3 3 3 3 3 4 4 4 4 5 6 5 3
6 6 5 5 4 4 3 4 4 5 5 5 4 4 4 3 3 4 4 3 3 3 3 2 3 2 1 2 2 2 2 2 3 3 3 3 3 4 4 5 5 5 3
6 6 5 5 4 4 4 4 4 4 4 4 4 3 3 3 3 3 3 3 3 3 3 2 2 2 2 2 2 2 2 2 2 3 3 3 3 3 4 5 4 6 5
6 6 5 5 4 4 4 4 4 4 4 3 3 3 3 3 3 3 3 3 3 3 2 2 2 2 2 1 2 1 1 2 2 2 2 2 2 2 2 3 3 4 7
6 6 5 5 4 4 4 4 4 4 3 3 3 3 3 2 3 3 3 3 2 2 2 2 2 2 2 1 1 1 1 2 2 2 2 2 2 2 3 3 2 3 4
6 6 5 4 4 3 3 3 3 3 3 3 3 3 2 2 3 3 2 3 3 2 2 2 2 2 2 2 2 2 1 2 2 3 3 3 3 3 2 3 3 4 4
6 5 5 4 4 4 3 4 3 3 3 3 3 3 3 3 3 2 2 3 3 2 2 2 1 1 2 2 2 2 1 2 2 2 3 2 2 2 2 2 2 4 4
6 5 5 5 4 4 4 4 4 3 3 2 2 3 3 3 3 2 2 2 2 2 2 2 2 2 2 1 1 1 1 2 2 2 3 3 2 2 2 2 2 2 2
6 6 5 5 4 4 3 3 4 3 2 2 2 3 3 3 3 2 2 1 1 1 1 2 1 1 2 1 1 1 2 2 1 2 2 2 2 2 2 2 2 2 2
6 6 5 5 4 4 3 3 4 3 3 2 2 3 3 3 2 2 2 2 1 1 1 2 2 2 3 4 4 1 2 3 3 2 1 2 2 3 3 2 2 2 3
6 5 5 5 4 4 4 4 3 4 2 2 3 2 2 2 2 2 2 1 1 1 2 2 3 3 3 10 8 4 2 2 2 2 2 3 4 5 6 5 5 3 3
6 5 5 4 4 4 4 4 4 2 3 3 2 2 2 2 2 2 2 2 2 2 2 4 4 4 5 11 9 6 2 2 1 2 2 3 3 4 4 6 6 7 7
5 5 4 4 4 4 5 4 2 3 3 3 2 2 2 2 2 2 2 3 3 2 3 4 4 4 5 11 9 7 2 2 1 2 2 3 3 3 3 3 3 3 3
4 4 4 4 5 5 4 3 3 3 3 3 3 2 2 2 2 3 3 3 3 3 4 4 5 4 5 11 9 4 3 2 2 1 1 2 3 9 8 3 3 4 5
4 4 3 4 5 5 4 3 3 3 3 3 2 2 2 2 2 2 3 3 2 2 2 4 4 5 5 11 9 4 2 2 2 2 3 7 5 10 8 3 3 4 4
4 3 4 5 5 4 3 4 4 4 3 2 2 2 2 2 2 3 3 2 3 3 3 4 4 4 5 7 10 8 2 2 2 2 3 4 10 10 9 7 3 4 4
4 3 4 5 5 5 3 4 4 4 4 2 2 2 2 2 2 2 3 3 3 3 4 4 4 4 5 9 10 9 7 5 2 2 2 6 11 11 10 7 11 10 6
4 4 4 5 5 5 4 4 4 5 3 2 2 2 2 2 2 2 3 4 4 3 3 3 3 4 5 5 10 10 9 8 4 3 6 11 12 11 10 11 10 8 3
4 4 4 5 6 6 4 3 4 4 2 3 3 2 3 3 2 3 3 3 3 3 3 3 4 4 5 5 5 5 6 8 6 8 7 8 8 8 7 7 6 3 3
4 4 4 5 5 5 5 3 3 2 3 3 3 3 2 3 3 4 4 3 2 3 3 3 2 3 4 4 6 5 4 4 6 6 4 3 3 4 4 3 2 2 2
5 4 4 4 5 5 5 2 3 2 3 3 3 3 3 3 4 6 7 12 11 11 9 7 4 3 6 11 11 10 9 11 9 4 4 5 4 3 3 3 2 2 3